Location: *
(46.1333°S, 161.2167°W)
Time: 03:53:04
(UTC+00:00)

COSMO-SKYMED 1 - Pass Details

Date: 15 July 2020
Orbit: 621 x 623 km, 97.9° (Epoch: 10 August)

Event Time Altitude Azimuth Distance (km) Brightness Sun altitude
Rises 16:25:01 0° 161° (SSE) 2,949 6.1 -19.6°
Reaches altitude 10° 16:27:20 10° 154° (SSE) 2,034 5.4 -19.2°
Maximum altitude 16:31:33 42° 82° (E) 908 3.9 -18.5°
Drops below altitude 10° 16:35:43 10° 10° (N) 2,006 5.5 -17.8°
Sets 16:37:59 0° 3° (N) 2,904 6.2 -17.4°
